Previsão horária em Cecenowo

Hoje, 2 Agosto, Segunda-feira

Tempo Temperatura Precipitação Vento Pressão Humidade
00:00 +16°C° 0 mm 2 m/s 752 mmHg 93%
01:00 +15°C° 0 mm 2 m/s 752 mmHg 93%
02:00 +14°C° 0.3 mm 3 m/s 752 mmHg 94%
03:00 +14°C° 0.3 mm 3 m/s 752 mmHg 95%
04:00 +13°C° 0.3 mm 3 m/s 752 mmHg 96%
05:00 +14°C° 0.2 mm 4 m/s 752 mmHg 92%
06:00 +15°C° 0.2 mm 5 m/s 752 mmHg 88%
07:00 +17°C° 0.2 mm 6 m/s 752 mmHg 83%
08:00 +17°C° 0.2 mm 6 m/s 752 mmHg 76%
09:00 +18°C° 0.2 mm 7 m/s 753 mmHg 69%
10:00 +20°C° 0.2 mm 8 m/s 753 mmHg 61%
11:00 +18°C° 0.3 mm 8 m/s 753 mmHg 63%
12:00 +18°C° 0.3 mm 9 m/s 753 mmHg 64%
13:00 +18°C° 0.3 mm 9 m/s 754 mmHg 66%
14:00 +18°C° 0.1 mm 9 m/s 754 mmHg 62%
15:00 +19°C° 0.1 mm 9 m/s 754 mmHg 57%
16:00 +21°C° 0.1 mm 9 m/s 754 mmHg 53%
17:00 +19°C° 0 mm 9 m/s 754 mmHg 58%
18:00 +18°C° 0 mm 8 m/s 754 mmHg 63%
19:00 +17°C° 0 mm 8 m/s 754 mmHg 68%
20:00 +17°C° 0.1 mm 7 m/s 754 mmHg 72%
21:00 +16°C° 0.1 mm 7 m/s 754 mmHg 76%
22:00 +15°C° 0.1 mm 7 m/s 754 mmHg 80%
23:00 +15°C° 0.1 mm 6 m/s 755 mmHg 82%

Amanhã, 3 Agosto, Terça-feira

Tempo Temperatura Precipitação Vento Pressão Humidade
00:00 +14°C° 0.1 mm 6 m/s 755 mmHg 84%
01:00 +14°C° 0.1 mm 5 m/s 755 mmHg 86%
02:00 +14°C° 0.1 mm 5 m/s 756 mmHg 88%
03:00 +13°C° 0.1 mm 5 m/s 756 mmHg 90%
04:00 +13°C° 0.1 mm 5 m/s 756 mmHg 92%
05:00 +14°C° 0.2 mm 5 m/s 756 mmHg 87%
06:00 +15°C° 0.2 mm 4 m/s 757 mmHg 82%
07:00 +18°C° 0.2 mm 4 m/s 757 mmHg 77%
08:00 +18°C° 0.4 mm 4 m/s 757 mmHg 73%
09:00 +19°C° 0.4 mm 4 m/s 758 mmHg 70%
10:00 +20°C° 0.4 mm 4 m/s 758 mmHg 66%
11:00 +20°C° 0.3 mm 4 m/s 758 mmHg 65%
12:00 +20°C° 0.3 mm 4 m/s 758 mmHg 64%
13:00 +20°C° 0.3 mm 4 m/s 758 mmHg 64%
14:00 +20°C° 0.1 mm 4 m/s 758 mmHg 62%
15:00 +20°C° 0.1 mm 4 m/s 758 mmHg 60%
16:00 +20°C° 0.1 mm 4 m/s 758 mmHg 58%
17:00 +19°C° 0 mm 4 m/s 758 mmHg 63%
18:00 +18°C° 0 mm 3 m/s 759 mmHg 67%
19:00 +17°C° 0 mm 3 m/s 759 mmHg 72%
20:00 +16°C° 0 mm 3 m/s 759 mmHg 76%
21:00 +15°C° 0 mm 2 m/s 759 mmHg 80%
22:00 +14°C° 0 mm 2 m/s 759 mmHg 85%
23:00 +14°C° 0 mm 2 m/s 759 mmHg 86%

Depois de amanhã, 4 Agosto, Quarta-feira

Tempo Temperatura Precipitação Vento Pressão Humidade
00:00 +13°C° 0 mm 2 m/s 759 mmHg 87%
01:00 +13°C° 0 mm 2 m/s 760 mmHg 89%
02:00 +13°C° 0 mm 2 m/s 760 mmHg 88%
03:00 +13°C° 0 mm 2 m/s 759 mmHg 87%
04:00 +14°C° 0 mm 2 m/s 759 mmHg 86%
05:00 +15°C° 0 mm 1 m/s 760 mmHg 80%
06:00 +16°C° 0 mm 1 m/s 760 mmHg 74%
07:00 +19°C° 0 mm 1 m/s 760 mmHg 69%
08:00 +20°C° 0 mm 1 m/s 760 mmHg 62%
09:00 +22°C° 0 mm 1 m/s 760 mmHg 56%
10:00 +21°C° 0 mm 0 m/s 760 mmHg 49%
11:00 +23°C° 0 mm 1 m/s 760 mmHg 50%
12:00 +23°C° 0 mm 2 m/s 759 mmHg 50%
13:00 +23°C° 0 mm 2 m/s 759 mmHg 50%
14:00 +24°C° 0 mm 3 m/s 759 mmHg 50%
15:00 +24°C° 0 mm 3 m/s 759 mmHg 50%
16:00 +23°C° 0 mm 4 m/s 759 mmHg 51%
17:00 +22°C° 0 mm 4 m/s 759 mmHg 56%
18:00 +21°C° 0 mm 4 m/s 759 mmHg 61%
19:00 +20°C° 0 mm 4 m/s 759 mmHg 67%
20:00 +19°C° 0 mm 4 m/s 759 mmHg 72%
21:00 +18°C° 0 mm 4 m/s 759 mmHg 78%
22:00 +17°C° 0 mm 4 m/s 759 mmHg 83%
23:00 +17°C° 0.3 mm 4 m/s 758 mmHg 86%

5 Agosto, Quinta-feira

Tempo Temperatura Precipitação Vento Pressão Humidade
00:00 +17°C° 0.3 mm 4 m/s 758 mmHg 89%
01:00 +17°C° 0.3 mm 4 m/s 758 mmHg 92%
02:00 +17°C° 0.2 mm 4 m/s 757 mmHg 92%
03:00 +17°C° 0.2 mm 3 m/s 757 mmHg 93%
04:00 +17°C° 0.2 mm 3 m/s 757 mmHg 94%
05:00 +17°C° 0.3 mm 3 m/s 757 mmHg 93%
06:00 +17°C° 0.3 mm 4 m/s 757 mmHg 93%
07:00 +18°C° 0.3 mm 4 m/s 757 mmHg 92%
08:00 +19°C° 0.1 mm 4 m/s 756 mmHg 84%
09:00 +20°C° 0.1 mm 4 m/s 756 mmHg 76%
10:00 +22°C° 0.1 mm 4 m/s 756 mmHg 67%
11:00 +22°C° 0.1 mm 3 m/s 756 mmHg 63%
12:00 +24°C° 0.1 mm 3 m/s 756 mmHg 59%
13:00 +24°C° 0.1 mm 2 m/s 756 mmHg 55%
14:00 +24°C° 0.2 mm 2 m/s 755 mmHg 56%
15:00 +24°C° 0.2 mm 2 m/s 755 mmHg 57%
16:00 +24°C° 0.2 mm 2 m/s 755 mmHg 58%
17:00 +23°C° 0.2 mm 2 m/s 755 mmHg 63%
18:00 +21°C° 0.2 mm 2 m/s 755 mmHg 67%
19:00 +21°C° 0.2 mm 1 m/s 755 mmHg 72%
20:00 +20°C° 0 mm 1 m/s 755 mmHg 74%
21:00 +19°C° 0 mm 2 m/s 754 mmHg 77%
22:00 +18°C° 0 mm 2 m/s 754 mmHg 80%
23:00 +18°C° 0 mm 2 m/s 754 mmHg 81%

6 Agosto, Sexta-feira

Tempo Temperatura Precipitação Vento Pressão Humidade
00:00 +18°C° 0 mm 2 m/s 753 mmHg 82%
01:00 +19°C° 0 mm 1 m/s 753 mmHg 83%
02:00 +17°C° 0 mm 2 m/s 753 mmHg 83%
03:00 +17°C° 0 mm 2 m/s 752 mmHg 84%
04:00 +16°C° 0 mm 2 m/s 752 mmHg 85%
05:00 +17°C° 0 mm 3 m/s 752 mmHg 82%
06:00 +18°C° 0 mm 4 m/s 751 mmHg 79%
07:00 +19°C° 0 mm 4 m/s 751 mmHg 76%
08:00 +20°C° 0 mm 5 m/s 751 mmHg 70%
09:00 +21°C° 0 mm 6 m/s 751 mmHg 64%
10:00 +23°C° 0 mm 6 m/s 750 mmHg 57%
11:00 +23°C° 0 mm 7 m/s 750 mmHg 57%
12:00 +23°C° 0 mm 7 m/s 750 mmHg 57%
13:00 +23°C° 0 mm 8 m/s 750 mmHg 57%
14:00 +23°C° 0 mm 8 m/s 750 mmHg 56%
15:00 +23°C° 0 mm 8 m/s 750 mmHg 56%
16:00 +22°C° 0 mm 8 m/s 750 mmHg 55%
17:00 +21°C° 0 mm 7 m/s 750 mmHg 59%
18:00 +20°C° 0 mm 6 m/s 750 mmHg 63%
19:00 +19°C° 0 mm 5 m/s 751 mmHg 67%
20:00 +19°C° 0 mm 5 m/s 751 mmHg 72%
21:00 +17°C° 0 mm 5 m/s 751 mmHg 77%
22:00 +17°C° 0 mm 4 m/s 751 mmHg 81%
23:00 +15°C° 0 mm 4 m/s 751 mmHg 83%

7 Agosto, Sábado

Tempo Temperatura Precipitação Vento Pressão Humidade
00:00 +15°C° 0 mm 4 m/s 752 mmHg 84%
01:00 +15°C° 0 mm 4 m/s 752 mmHg 85%
02:00 +15°C° 0 mm 4 m/s 752 mmHg 89%
03:00 +15°C° 0 mm 5 m/s 752 mmHg 92%
04:00 +15°C° 0 mm 5 m/s 753 mmHg 95%
05:00 +16°C° 0 mm 6 m/s 753 mmHg 90%
06:00 +17°C° 0 mm 6 m/s 753 mmHg 85%
07:00 +19°C° 0 mm 6 m/s 754 mmHg 80%
08:00 +21°C° 0 mm 6 m/s 754 mmHg 73%
09:00 +22°C° 0 mm 6 m/s 754 mmHg 66%
10:00 +23°C° 0 mm 6 m/s 755 mmHg 59%
11:00 +23°C° 0.1 mm 6 m/s 755 mmHg 58%
12:00 +23°C° 0.1 mm 5 m/s 755 mmHg 58%
13:00 +23°C° 0.1 mm 5 m/s 756 mmHg 57%
14:00 +23°C° 0 mm 4 m/s 756 mmHg 58%
15:00 +24°C° 0 mm 3 m/s 756 mmHg 59%
16:00 +24°C° 0 mm 2 m/s 756 mmHg 60%
17:00 +23°C° 0 mm 2 m/s 756 mmHg 63%
18:00 +23°C° 0 mm 2 m/s 756 mmHg 67%
19:00 +21°C° 0 mm 2 m/s 756 mmHg 70%
20:00 +20°C° 0 mm 3 m/s 756 mmHg 71%
21:00 +20°C° 0 mm 3 m/s 757 mmHg 71%
22:00 +19°C° 0 mm 4 m/s 757 mmHg 72%
23:00 +19°C° 0 mm 4 m/s 756 mmHg 70%
Mostrar mais

Necessitamos do seu Consentimento

A Meteoprog e os seus Fornecedores de Serviços podem armazenar e aceder a dados pessoais como cookies, identificadores do dispositivo ou outras tecnologias semelhantes existentes no seu dispositivo e processar estes dados para personalizar conteúdos e anúncios, assim como funcionalidades nas redes sociais e análise de tráfego.

  • Armazenar e/ou aceder a informações no seu dispositivo

    Os cookies, identificadores do dispositivo ou outras informações podem ser armazenados ou acedidos no seu dispositivo, para os fins acima indicados.

  • Anúncios e conteúdos personalizados, medição de anúncios e conteúdos, dados sobre o público-alvo e desenvolvimento de produtos

    Os anúncios e os conteúdos podem ser personalizados com base num perfil. Podem ser adicionados dados adicionais para uma maior personalização dos anúncios e dos conteúdos. A eficácia dos anúncios e dos conteúdos pode ser medida. Podem ser obtidas informações sobre o público que visualizou os anúncios e os conteúdos. Estes dados podem ser usados para desenvolver ou melhorar sistemas, softwares ou a experiência do utilizador.

Ao clicar em "Eu concordo”, permitirá o uso de cookies, identificadores do dispositivo e web beacons mencionados ou outras tecnologias semelhantes. As configurações do navegador do seu dispositivo podem ser alteradas.

Para certos fins, podem ser invocados interesses legítimos ao invés de consentimento. Pode ler mais informação sobre este assunto na nossa Política de Privacidade e Cookies.